Flag for Poland Weather past 2 weeks in Elbląg, Poland

Now
53 °F

Fog.


Feels Like: 52 °F
Forecast: 36 / 47 °F
Wind: 6 mph from East

Location: Hel

Current Time: Oct 22, 2014 at 11:42:59 AM

Latest Report: Oct 22, 2014 at 11:00 AM


Visibility: 6 mi

Pressure: 29.67 "Hg

Humidity: 92%

Dew point: 51 °F

Location of ElblągLocation

Historic Weather in Elbląg — Graph

°F

Elbląg temperature yesterday

Maximum temperature yesterday: 55 °F (at 3:00 PM)
Minimum temperature yesterday: 50 °F (at 8:00 AM)
Average temperature yesterday: 53 °F

Past Weeks' High & Low Weather Summary

 TemperatureHumidityPressure
High64 °F (Oct 10, 12:00 PM)99% (Oct 12, 9:00 AM)30.32 "Hg (Oct 12, 9:00 AM)
Low45 °F (Oct 18, 9:00 AM)68% (Oct 7, 6:00 PM)29.57 "Hg (Oct 22, 6:00 AM)
Average55 °F90%29.86 "Hg
* Reported Oct 7 10:00 AM — Oct 22 10:00 AM, Elbląg, Weather by CustomWeather, © 2014

Note: Actual official high and low records may vary slightly from our data, if they occured in-between our weather recording intervals... More about our weather records

Advertising

Elbląg weather history for previous 24 hours

 ConditionsComfort  
Time TempWeatherWind HumidityBarometerVisibility
10:00 AM
Oct 22
52 °FOvercast.6 mph96%29.66 "Hg3 mi
9:00 AM52 °FSprinkles. Overcast.6 mph95%29.64 "Hg3 mi
8:00 AM53 °FFog.5 mph94%29.60 "Hg6 mi
7:00 AM53 °FFog.5 mph96%29.57 "Hg4 mi
6:00 AM52 °FOvercast.3 mph96%29.57 "Hg3 mi
5:00 AM52 °FFog.3 mph97%29.58 "Hg3 mi
4:00 AM52 °FLow clouds.3 mph97%29.57 "Hg2 mi
3:00 AM52 °FLight rain. Low clouds.3 mph97%29.57 "Hg2 mi
2:00 AM53 °FLight rain. Low clouds.3 mph95%29.57 "Hg1 mi
1:00 AM53 °FOvercast.3 mph95%29.57 "Hg4 mi
12:00 AM53 °FLight rain. Overcast.2 mph95%29.58 "Hg5 mi
11:00 PM
Oct 21
53 °FLight rain. Overcast.3 mph94%29.58 "Hg5 mi
10:00 PM53 °FOvercast.3 mph91%29.59 "Hg9 mi
9:00 PM53 °FOvercast.3 mph89%29.59 "Hg12 mi
8:00 PM54 °FOvercast.3 mph88%29.62 "Hg12 mi
7:00 PM54 °FOvercast.3 mph87%29.62 "Hg12 mi
6:00 PM54 °FOvercast.2 mph88%29.64 "Hg12 mi
5:00 PM55 °FOvercast.2 mph84%29.65 "Hg12 mi
4:00 PM55 °FOvercast.2 mph86%29.65 "Hg12 mi
3:00 PM55 °FOvercast.2 mph87%29.67 "Hg11 mi
2:00 PM54 °FOvercast.2 mph89%29.69 "Hg11 mi
1:00 PM55 °FOvercast.3 mph87%29.70 "Hg11 mi
12:00 PM54 °FPartly sunny.2 mph88%29.72 "Hg7 mi
11:00 AM53 °FScattered clouds.3 mph88%29.72 "Hg7 mi
Weather by CustomWeather, © 2014

See weather overviewHow to use our weather pages